Bryce, UT (84764)

1:17 PM MST on February 14, 2016 (GMT -0700)
Bryce Canyon | | Change Station
CLOSE
Current Station
Airport
Location: Bryce Canyon,
Elevation: 7585 ft
Nearby Weather Stations

Elev 7585 ft 37.71 °N, 112.15 °W | Updated 24 minutes ago

Clear
Clear
43 °F
Feels Like 34 °F
N
20
Wind Variable Wind from WNW

Today
High -- | Low -- °F
--% Chance of Precip.
Yesterday
High -- | Low -- °F
Precip. -- in
Pressure 30.16 in
Visibility 10.0 miles
Clouds Clear
Windchill 34 °F
Dew Point 14 °F
Humidity 31%
Rainfall 0.00 in
Snow Depth Not available.
7:19 AM 6:06 PM
Waxing Crescent, 45% visible
METAR KBCE 141953Z AUTO 30017KT 10SM CLR 06/M10 A3021 RMK AO2 SLP212 T00611100
Pressure 30.16 in
Visibility 10.0 miles
Clouds Clear
Windchill 34 °F
Dew Point 14 °F
Humidity 31%
Rainfall 0.00 in
Snow Depth Not available.
7:19 AM 6:06 PM
Waxing Crescent, 45% visible
METAR KBCE 141953Z AUTO 30017KT 10SM CLR 06/M10 A3021 RMK AO2 SLP212 T00611100

10-Day Weather Forecast

Almanac

Astronomy

Feb. 14, 2016 Rise Set
Actual Time
Civil Twilight
Nautical Twilight
Astronomical Twilight
Moon
Length of Visible Light
Length of Day
Tomorrow will be .
, % of the Moon is Illuminated

Today's Extremes

State Highs State Lows

Community

WunderPhotos

Upload Photos

1,892,880 photos uploaded!

WunderBlog® & News

Nearby

Air Quality

  Air Quality AQ Index Pollutant
Not available.

Snow Depth

Station Depth Elevation

Earthquake Activity

City Distance Mag. Time & Date
Minimum magnitude displayed is 2.5.

Coastal Water Temperatures

Place Temperature

Stations

Nearby Weather Stations

Station Location Temp. Windchill Dew Point Humidity Wind Precip. Elev Updated Type
                   

Watches & Warnings

There are currently no watches in effect.